sat.trackr.live / text

‹ back to catalog

STARLINK-3177

NORAD 51138 · 2022-005AL

PAYLOAD ACTIVE UNKNOWN

§ Identity

Operator
Country
US
Launch date
2022-01-19
Launch site
AFETR
Launch vehicle
Mass (kg)
RCS (m²)

Purposes: comms

External: N2YO · Heavens-Above · Gunter

§ Orbital elements

Epoch: 2026-05-25T03:57:29.733408Z

Period
95.44 min
Inclination
53.2132°
Eccentricity
0.0001098
Mean motion
15.08836384 rev/d
Perigee alt
539.0 km
Apogee alt
540.5 km
Semi-major
6,917.9 km
B*
5.0502e-5
RAAN
315.8089°
Arg perigee
80.7607°
Mean anomaly
279.3509°
Rev number
24,027

§ Raw data

STARLINK-31771 51138U 22005AL  26145.16492747  .00000516  00000+0  50502-4 0  99922 51138  53.2132 315.8089 0001098  80.7607 279.3509 15.08836384240272

JSON: /api/v1/satellites/51138 · /tle

For live sub-satellite position, see the globe view (requires WebGL).

§ Visibility from observer

Set your observer location to see the next 7 days of passes ≥ 10°. The values pass through the URL so the page stays shareable.

No JS? Fill the form by hand. The geolocation button needs JavaScript.